STARLINK-34585, 64779

Orbit data source: Space-Track

STARLINK-34585, 64779 is a payload satellite owned by SpaceX/Seattle (US) in LEO that was launched on Tue, 08 Jul 2025 UTC via an FALCON 9 launch vehicle from the Air Force Eastern Test Range (AFETR). Payload-class satellites include a variety of spacecraft equipped with specific instruments for various scientific and technological missions. These include communications satellites like Starlink; space stations such as the ISS; scientific satellites like the Hubble; Earth observation satellites from companies like Planet Labs, Umbra, and HawkEye 360; GPS; miniature CubeSats for education and research; and military/defense satellites.

Loading next visibility...
Identifier
64779, 2025-147AA
Orbit
LEO
Country
Flag of USUS
Related business
Manufacturer
SpaceX/Seattle
Mission
Operational Commercial Communications
Bus & Motor
STARLINK V2MO, Unknown motor
Mass
575 kg wet, ~530 kg dry
Launch date (UTC)
2025-07-08 (11 months ago)
Launch vehicle
FALCON 9
Launch site
Air Force Eastern Test Range (AFETR)
Object type
Payload
Rocket body
Debris
Shape & HBR
Box + 2 Pan, 17.7 m
Radar Cross Section
36.964 m², Large (>1 m²)

Expand to show TLE details & history
Last TLE update: 16 hours ago

TLE from 16 hours ago
0 STARLINK-34585
1 64779U 25147AA  26171.19621650  .00021719  00000-0  65180-3 0  9992
2 64779  53.1606 125.3629 0001174  88.3656 271.7482 15.34412671 54412
Epoch: 2026-06-20T04:42Z
TLE epoch observation values (Epoch: 2026-06-20T04:42:33.105Z)
Latitude
0.00005°
Longitude
146.31069°
Altitude
463.543 km
Speed
7.636 km/s
True Right ascension
08h 21m 27s
True Declination
0° 00' 00"
Sunlit
Object was in daylight at epoch
Visualization orbit readout
Latitude
Unknown
Longitude
Unknown
Altitude
Unknown
Speed
Unknown
Apparent Right ascension
Unknown
Apparent Declination
Unknown
Sunlit
N/A
Visualization observer readout
Local Sidereal Time
07:18:39
Azimuth
Unknown
Elevation
Unknown
Doppler factor
Unknown
Orbital elements
Apogee altitude
463.726 km
Perigee altitude
462.119 km
Semi-major axis
6,841.059 km
Eccentricity
0.00012
Inclination
53.1606°
RAAN
125.3629°
Arg. of periapsis
88.3656°
True anomaly
271.73475°
Mean anomaly
271.7482°
Eccentric anomaly
271.74148°
Mean motion
3.83582 °/min
Orbital period
93.85 mins
BSTAR
0.0006518
Loading maneuver chart data...
Computing Atmospheric mass density...
Loading historical data...
Loading historical data...
Loading historical data...
Loading historical data...
Loading historical data...
Loading historical data...
Loading historical data...

Documentation

Showing up to 5 results
|